Regional Weather Roundup
Issued by NWS

Home | Current Version | Previous Version | Graphics & Text | Print | Product List | Glossary Off
Versions: 1 2 3 4 5 6 7 8 9 10 11 12 13 14 15 16 17 18 19 20 21 22 23 24 25 26 27 28 29 30 31 32 33 34 35 36 37 38 39 40 41 42 43 44 45 46 47 48 49 50

000
ASUS43 KMKX 231411
RWRWI

WISCONSIN REGIONAL WEATHER ROUNDUP
NATIONAL WEATHER SERVICE MILWAUKEE/SULLIVAN WI
900 AM CDT THU MAR 23 2017

NOTE: "FAIR" INDICATES FEW OR NO CLOUDS BELOW 12,000 FEET WITH NO
SIGNIFICANT WEATHER AND/OR OBSTRUCTIONS TO VISIBILITY.

WIZ001-002-006>008-014>016-023>028-231500-
NORTHWEST WISCONSIN

CITY           SKY/WX    TMP DP  RH WIND       PRES   REMARKS
SUPERIOR ARPT  CLOUDY    33  26  76 S6        30.12F WCI  27
ASHLAND        CLOUDY    32  26  78 S6        30.17F WCI  26
HAYWARD        CLOUDY    32  22  66 S13G22    30.14F WCI  22
SIREN          CLOUDY    33  23  67 S13G18    30.13F WCI  24
CUMBERLAND     CLOUDY    32  23  69 SE12      30.14F WCI  23
RICE LAKE      CLOUDY    32  24  71 SE14G21   30.18F WCI  22
CHETEK         CLOUDY    32  22  68 SE13      30.18F WCI  22
LADYSMITH      CLOUDY    32  22  68 SE12G18   30.21F WCI  23
EAU CLAIRE     CLOUDY    34  19  54 SE14      30.19F WCI  25
MENOMONIE      CLOUDY    35  22  58 SE16      30.18F WCI  25
NEW RICHMOND   CLOUDY    36  21  54 SE15      30.13F WCI  26
OSCEOLA        CLOUDY    37  23  56 SE12      30.15F WCI  29
$$

WIZ003>005-009-010-017-018-231500-
NORTH CENTRAL WISCONSIN

CITY           SKY/WX    TMP DP  RH WIND       PRES   REMARKS
MANITOWISH WTR CLOUDY    26  25  97 S10G18    30.20F WCI  16
ARBOR VITAE    FLURRIES  28  25  87 S10       30.22F WCI  18
WOODRUFF       FLURRIES  28  25  87 S10       30.22F WCI  18
RHINELANDER    FLURRIES  27  23  85 SE9       30.25F WCI  18
EAGLE RIVER    FLURRIES  25  21  84 S7        30.25F WCI  18
LAND O LAKES   LGT SNOW  26  23  89 S9        30.25F WCI  16
PHILLIPS       CLOUDY    28  22  77 SE12G18   30.20F WCI  18
TOMAHAWK       CLOUDY    26  22  85 SE5       30.25F WCI  20
MEDFORD        CLOUDY    28  19  68 SE12G18   30.22F WCI  18
MERRILL        CLOUDY    27  21  80 SE7       30.28F WCI  19
$$

WIZ029-030-035-036-043>047-231500-
CENTRAL WISCONSIN

CITY           SKY/WX    TMP DP  RH WIND       PRES   REMARKS
WAUSAU         CLOUDY    28  18  66 SE10      30.28F WCI  19
MOSINEE        CLOUDY    28  21  74 SE9       30.30F WCI  20
MARSHFIELD     CLOUDY    30  18  60 SE13      30.24F WCI  20
STEVENS POINT  CLOUDY    27  19  72 SE8G16    30.31F WCI  19
WAUPACA        CLOUDY    32  24  72 SE6       30.35S WCI  26
WAUTOMA        CLOUDY    31  24  75 SE6       30.33  WCI  25
WISC RAPIDS    CLOUDY    30  21  69 SE10      30.30F WCI  21
CAMP DOUGLAS   CLOUDY    32  21  64 SE13      30.27F WCI  22
$$

WIZ011>013-019>022-031-037>040-048>050-231500-
NORTHEAST WISCONSIN

CITY           SKY/WX    TMP DP  RH WIND       PRES   REMARKS
ANTIGO         CLOUDY    24  22  92 SE9       30.30F WCI  14
SHAWANO        CLOUDY    31  23  73 CALM      30.37F
OCONTO         CLOUDY    31  25  77 S7        30.38F WCI  25
STURGEON BAY   CLOUDY    34  26  72 S10       30.39F WCI  26
GREEN BAY      CLOUDY    33  28  81 S10       30.37F WCI  25
MANITOWOC      CLOUDY    35  26  69 S12       30.40F WCI  27
APPLETON       CLOUDY    32  23  69 SE10      30.34F WCI  24
CLINTONVILLE   CLOUDY    30  23  74 S8        30.35F WCI  23
OSHKOSH        CLOUDY    32  23  69 S9        30.35F WCI  24
$$

WIZ032>034-041-042-053>061-231500-
SOUTHWEST WISCONSIN

CITY           SKY/WX    TMP DP  RH WIND       PRES   REMARKS
LA CROSSE      CLOUDY    36  22  56 SE14      30.23F WCI  27
SPARTA         CLOUDY    34  21  59 SE7       30.26F WCI  28
VIROQUA        CLOUDY    32  21  64 SE18      30.22F WCI  20
BOSCOBEL       CLOUDY    35  21  56 VRB5      30.29F WCI  31
PRAIRIE DU CHI CLOUDY    35  21  56 E9        30.26F WCI  28
PLATTEVILLE    CLOUDY    34  24  66 SE15      30.28F WCI  24
$$

WIZ056-057-062-063-064-067-068-231500-
SOUTH CENTRAL WISCONSIN

CITY           SKY/WX    TMP DP  RH WIND       PRES   REMARKS
REEDSBURG      CLOUDY    32  21  64 SE7       30.29F WCI  26
BARABOO/DELLS  CLOUDY    32  22  66 SE12      30.29F WCI  23
LONE ROCK      CLOUDY    35  21  56 SE12      30.30F WCI  27
MINERAL POINT  CLOUDY    34  23  64 SE14      30.27F WCI  24
MADISON        CLOUDY    33  21  61 SE15      30.33F WCI  23
MIDDLETON      CLOUDY    34  23  64 SE10      30.32F WCI  26
WATERTOWN      CLOUDY    32  22  66 SE5       30.36F WCI  27
MONROE         CLOUDY    34  23  64 SE16      30.31F WCI  23
JANESVILLE     CLOUDY    36  21  55 SE14      30.35F WCI  27
$$

WIZ051-052-058>065-066-070>072-231500-
SOUTHEAST WISCONSIN

CITY           SKY/WX    TMP DP  RH WIND       PRES   REMARKS
MILWAUKEE      CLOUDY    35  21  56 SE16      30.41R WCI  25
WAUKESHA       CLOUDY    30  21  69 SE9       30.39F WCI  22
MILWAUKEE/TIMM PTSUNNY   34  19  55 SE13      30.41F WCI  25
RACINE         CLOUDY    35  22  58 S16G22    30.42F WCI  25
KENOSHA        CLOUDY    34  22  61 SE12      30.41R WCI  25
FOND DU LAC    CLOUDY    33  22  63 S15       30.35F WCI  23
SHEBOYGAN      CLOUDY    34  25  69 S9        30.39F WCI  27
WEST BEND      CLOUDY    32  27  80 SE7       30.38F WCI  26
JUNEAU         CLOUDY    32  22  65 SE12      30.37S WCI  23
$$

LSZ147-162-231500-
LAKE SUPERIOR

STATION/POSITION TIME  TEMP    WIND        PRES    WAVE
                       AIR SEA DIR/SP/G            HT/PER
                 (UTC) (F)     (DEG/KT/KT) (MB)    (FT/S)
DEVILS ISLAND    1400   31     160/ 10/ 14 1022.1F
PORT WING        1300   31     150/  4/ 13 1021.7
SAXON HARBOR     1400   33     180/  6/ 19 1021.0F
$$

LMZ867-665-643>646-231500-
LAKE MICHIGAN

STATION/POSITION TIME  TEMP    WIND        PRES    WAVE
                       AIR SEA DIR/SP/G            HT/PER
                 (UTC) (F)     (DEG/KT/KT) (MB)    (FT/S)
CHAMBERS ISLAND  1330   30     160/  3/  5 1028.8F
NORTHPORT PIER   1340   33     170/  2/  7 1029.5S
SISTER BAY       1321   33     170/ 11/ 15   N/A
KEWAUNEE LAKESHO 1348   35     180/ 13/ 16 1028.9F
SHEBOYGAN LAKESH 1400   35     170/ 19/ 21 1029.8F
PORT WASHINGTON  1330   35     170/ 15/ 18 1030.1F
MILWAUKEE LAKESH 1350   34     160/ 17/ 19   N/A
KENOSHA   LAKESH 1400   33     160/ 19/ 24 1029.5
$$

TC  - TEMPERATURE IN CELSIUS
VSB - VISIBILITY IN STATUTE MILES
WCI - WIND CHILL INDEX
HX  - HEAT INDEX




USA.gov is the U.S. government's official web portal to all federal, state and local government web resources and services.